| time (UTC) | temp C | wind direction | speed KPH | gust KPH | rain 1hr cm | rain 24hr cm | rain mn cm | humidity % | barometer mb |
| 20260906214802 | 26 | 247 | 12.9 | 27.4 | 0.00 | 0.10 | 0.00 | 20 | 1027.7 |
| 20260906214303 | 26 | 227 | 17.7 | 38.6 | 0.00 | 0.10 | 0.00 | 20 | 1028.1 |
| 20260906213803 | 26 | 258 | 17.7 | 29.0 | 0.00 | 0.10 | 0.00 | 20 | 1028.0 |
| 20260906213303 | 26 | 260 | 16.1 | 32.2 | 0.00 | 0.10 | 0.00 | 18 | 1028.0 |
| 20260906212803 | 26 | 263 | 29.0 | 38.6 | 0.00 | 0.10 | 0.00 | 17 | 1027.7 |
| 20260906212306 | 26 | 270 | 24.1 | 35.4 | 0.00 | 0.10 | 0.00 | 17 | 1028.0 |
| 20260906210803 | 26 | 241 | 27.4 | 35.4 | 0.00 | 0.10 | 0.00 | 17 | 1028.1 |
| 20260906205802 | 26 | 255 | 19.3 | 29.0 | 0.00 | 0.10 | 0.00 | 19 | 1028.1 |
| 20260906205306 | 26 | 258 | 22.5 | 38.6 | 0.00 | 0.10 | 0.00 | 19 | 1028.1 |
| 20260906204803 | 26 | 240 | 25.7 | 35.4 | 0.00 | 0.10 | 0.00 | 20 | 1028.1 |
| 20260906204303 | 26 | 238 | 20.9 | 35.4 | 0.00 | 0.10 | 0.00 | 20 | 1028.4 |
| 20260906203803 | 26 | 230 | 29.0 | 41.8 | 0.00 | 0.10 | 0.00 | 20 | 1028.1 |
| 20260906202306 | 26 | 266 | 29.0 | 41.8 | 0.00 | 0.10 | 0.00 | 21 | 1028.1 |
| 20260906201303 | 26 | 257 | 24.1 | 37.0 | 0.00 | 0.10 | 0.00 | 23 | 1028.1 |
| 20260906200803 | 26 | 232 | 24.1 | 35.4 | 0.00 | 0.10 | 0.00 | 24 | 1028.1 |
| 20260906200303 | 26 | 237 | 19.3 | 32.2 | 0.00 | 0.10 | 0.00 | 25 | 1028.1 |
| 20260906195803 | 25 | 262 | 9.7 | 27.4 | 0.00 | 0.10 | 0.00 | 25 | 1028.4 |
| 20260906195306 | 26 | 248 | 11.3 | 20.9 | 0.00 | 0.10 | 0.00 | 25 | 1028.4 |
| 20260906194802 | 25 | 225 | 9.7 | 16.1 | 0.00 | 0.10 | 0.00 | 25 | 1028.4 |
| 20260906193303 | 25 | 339 | 8.0 | 19.3 | 0.00 | 0.10 | 0.00 | 26 | 1028.4 |
| 20260906192803 | 25 | 43 | 11.3 | 16.1 | 0.00 | 0.10 | 0.00 | 26 | 1028.4 |
| 20260906192306 | 26 | 131 | 11.3 | 16.1 | 0.00 | 0.10 | 0.00 | 27 | 1028.4 |
| 20260906191803 | 26 | 90 | 16.1 | 20.9 | 0.00 | 0.10 | 0.00 | 26 | 1028.7 |
| 20260906191303 | 26 | 92 | 11.3 | 20.9 | 0.00 | 0.10 | 0.00 | 26 | 1028.5 |
| 20260906190302 | 25 | 152 | 1.6 | 14.5 | 0.00 | 0.10 | 0.00 | 26 | 1028.7 |
| 20260906185803 | 25 | 77 | 9.7 | 14.5 | 0.00 | 0.10 | 0.00 | 27 | 1028.7 |
| 20260906185306 | 25 | 12 | 3.2 | 12.9 | 0.00 | 0.10 | 0.00 | 27 | 1029.1 |
| 20260906184803 | 25 | 357 | 8.0 | 14.5 | 0.00 | 0.10 | 0.00 | 28 | 1029.1 |
| 20260906183803 | 25 | 273 | 6.4 | 14.5 | 0.00 | 0.10 | 0.00 | 29 | 1029.1 |
| 20260906183302 | 25 | 45 | 11.3 | 19.3 | 0.00 | 0.10 | 0.00 | 29 | 1029.1 |
| 20260906182804 | 25 | 49 | 9.7 | 19.3 | 0.00 | 0.10 | 0.00 | 29 | 1029.1 |
| 20260906182306 | 25 | 52 | 4.8 | 12.9 | 0.00 | 0.10 | 0.00 | 29 | 1029.4 |
| 20260906181303 | 25 | 101 | 12.9 | 22.5 | 0.00 | 0.10 | 0.00 | 29 | 1029.4 |
| 20260906180803 | 25 | 48 | 11.3 | 20.9 | 0.00 | 0.10 | 0.00 | 29 | 1029.7 |
| 20260906180303 | 25 | 68 | 11.3 | 20.9 | 0.00 | 0.10 | 0.00 | 30 | 1029.5 |
| 20260906175803 | 24 | 78 | 8.0 | 12.9 | 0.00 | 0.10 | 0.00 | 30 | 1029.7 |
| 20260906174803 | 24 | 44 | 14.5 | 24.1 | 0.00 | 0.10 | 0.00 | 31 | 1029.8 |
| 20260906174303 | 25 | 87 | 12.9 | 20.9 | 0.00 | 0.10 | 0.00 | 32 | 1029.8 |
| 20260906173803 | 25 | 40 | 12.9 | 20.9 | 0.00 | 0.10 | 0.00 | 31 | 1029.8 |
| 20260906173303 | 24 | 0 | 11.3 | 20.9 | 0.00 | 0.10 | 0.00 | 32 | 1029.8 |
| 20260906172803 | 24 | 47 | 9.7 | 19.3 | 0.00 | 0.10 | 0.00 | 33 | 1030.1 |
| 20260906172306 | 24 | 45 | 12.9 | 24.1 | 0.00 | 0.10 | 0.00 | 34 | 1030.1 |
| 20260906171802 | 23 | 14 | 11.3 | 22.5 | 0.00 | 0.10 | 0.00 | 35 | 1030.1 |
| 20260906171303 | 23 | 44 | 12.9 | 20.9 | 0.00 | 0.10 | 0.00 | 36 | 1030.1 |
| 20260906170803 | 23 | 26 | 9.7 | 16.1 | 0.00 | 0.10 | 0.00 | 35 | 1030.1 |
| 20260906170303 | 23 | 43 | 12.9 | 19.3 | 0.00 | 0.10 | 0.00 | 36 | 1030.1 |
| 20260906165803 | 23 | 11 | 11.3 | 16.1 | 0.00 | 0.10 | 0.00 | 37 | 1030.1 |
| 20260906165306 | 23 | 338 | 11.3 | 14.5 | 0.00 | 0.10 | 0.00 | 37 | 1030.1 |
| 20260906164803 | 23 | 22 | 9.7 | 16.1 | 0.00 | 0.10 | 0.00 | 37 | 1030.1 |
| 20260906164303 | 22 | 23 | 11.3 | 16.1 | 0.00 | 0.10 | 0.00 | 38 | 1030.1 |
| 20260906163803 | 22 | 0 | 6.4 | 12.9 | 0.00 | 0.10 | 0.00 | 39 | 1030.1 |
| 20260906163303 | 22 | 322 | 3.2 | 11.3 | 0.00 | 0.10 | 0.00 | 39 | 1030.4 |
| 20260906162306 | 22 | 0 | 8.0 | 16.1 | 0.00 | 0.10 | 0.00 | 40 | 1030.1 |
| 20260906161803 | 22 | 339 | 8.0 | 14.5 | 0.00 | 0.10 | 0.00 | 40 | 1030.1 |
| 20260906161303 | 21 | 9 | 9.7 | 14.5 | 0.00 | 0.10 | 0.00 | 41 | 1030.1 |
| 20260906160804 | 21 | 36 | 8.0 | 16.1 | 0.00 | 0.10 | 0.00 | 41 | 1030.1 |
| 20260906155306 | 22 | 45 | 8.0 | 12.9 | 0.00 | 0.10 | 0.00 | 39 | 1030.1 |
| 20260906154803 | 22 | 34 | 6.4 | 12.9 | 0.00 | 0.10 | 0.00 | 39 | 1030.1 |
| 20260906153803 | 21 | 22 | 9.7 | 12.9 | 0.00 | 0.10 | 0.00 | 41 | 1030.1 |
| 20260906152803 | 21 | 45 | 6.4 | 11.3 | 0.00 | 0.10 | 0.00 | 42 | 1030.1 |
| 20260906152306 | 20 | 0 | 3.2 | 9.7 | 0.00 | 0.10 | 0.00 | 43 | 1030.1 |
| 20260906151803 | 20 | 44 | 4.8 | 11.3 | 0.00 | 0.10 | 0.00 | 44 | 1030.1 |
| 20260906151303 | 20 | 46 | 6.4 | 12.9 | 0.00 | 0.10 | 0.00 | 44 | 1030.1 |
| 20260906150803 | 20 | 88 | 6.4 | 11.3 | 0.00 | 0.10 | 0.00 | 44 | 1030.1 |
| 20260906150304 | 20 | 90 | 9.7 | 14.5 | 0.00 | 0.10 | 0.00 | 43 | 1030.1 |
| 20260906145306 | 20 | 90 | 6.4 | 9.7 | 0.00 | 0.10 | 0.00 | 43 | 1030.1 |
| 20260906144804 | 20 | 132 | 8.0 | 12.9 | 0.00 | 0.10 | 0.00 | 43 | 1030.1 |
| 20260906144303 | 19 | 135 | 8.0 | 9.7 | 0.00 | 0.10 | 0.00 | 44 | 1030.1 |
| 20260906143803 | 18 | 169 | 6.4 | 11.3 | 0.00 | 0.10 | 0.00 | 47 | 1030.1 |
| 20260906143304 | 18 | 159 | 9.7 | 12.9 | 0.00 | 0.10 | 0.00 | 50 | 1030.1 |
| 20260906142803 | 17 | 152 | 9.7 | 14.5 | 0.00 | 0.10 | 0.00 | 51 | 1030.1 |
| 20260906141803 | 17 | 134 | 11.3 | 16.1 | 0.00 | 0.10 | 0.00 | 52 | 1030.1 |
| 20260906141303 | 17 | 135 | 12.9 | 16.1 | 0.00 | 0.10 | 0.00 | 52 | 1030.1 |
| 20260906140805 | 17 | 130 | 11.3 | 14.5 | 0.00 | 0.10 | 0.00 | 52 | 1030.4 |
| 20260906135803 | 17 | 135 | 9.7 | 12.9 | 0.00 | 0.10 | 0.00 | 53 | 1030.1 |
| 20260906135306 | 17 | 135 | 8.0 | 11.3 | 0.00 | 0.10 | 0.00 | 54 | 1030.1 |
| 20260906134803 | 16 | 180 | 4.8 | 8.0 | 0.00 | 0.10 | 0.00 | 56 | 1030.1 |
| 20260906133803 | 15 | 180 | 6.4 | 9.7 | 0.00 | 0.10 | 0.00 | 58 | 1030.1 |
| 20260906133304 | 15 | 180 | 4.8 | 4.8 | 0.00 | 0.10 | 0.00 | 60 | 1030.1 |
| 20260906132804 | 15 | 225 | 6.4 | 8.0 | 0.00 | 0.10 | 0.00 | 60 | 1030.1 |
| 20260906132306 | 14 | 225 | 4.8 | 8.0 | 0.00 | 0.10 | 0.00 | 60 | 1030.1 |
| 20260906131803 | 13 | 225 | 4.8 | 8.0 | 0.00 | 0.10 | 0.00 | 61 | 1030.1 |
| 20260906131303 | 13 | 225 | 8.0 | 8.0 | 0.00 | 0.10 | 0.00 | 62 | 1030.1 |
| 20260906130303 | 13 | 180 | 1.6 | 8.0 | 0.00 | 0.10 | 0.00 | 61 | 1030.1 |
| 20260906125804 | 12 | 225 | 8.0 | 12.9 | 0.00 | 0.10 | 0.00 | 62 | 1030.1 |
| 20260906125306 | 12 | 219 | 8.0 | 12.9 | 0.00 | 0.10 | 0.00 | 62 | 1029.8 |
| 20260906124804 | 12 | 225 | 11.3 | 12.9 | 0.00 | 0.10 | 0.00 | 63 | 1030.1 |
| 20260906124303 | 12 | 225 | 8.0 | 12.9 | 0.00 | 0.10 | 0.00 | 63 | 1029.8 |
| 20260906123804 | 13 | 225 | 14.5 | 19.3 | 0.00 | 0.10 | 0.00 | 61 | 1029.8 |
| 20260906123303 | 12 | 225 | 8.0 | 11.3 | 0.00 | 0.10 | 0.00 | 63 | 1029.8 |
| 20260906122803 | 12 | 225 | 9.7 | 11.3 | 0.00 | 0.10 | 0.00 | 64 | 1029.8 |
| 20260906122306 | 12 | 225 | 8.0 | 11.3 | 0.00 | 0.10 | 0.00 | 63 | 1029.8 |
| 20260906121803 | 12 | 225 | 11.3 | 12.9 | 0.00 | 0.10 | 0.00 | 63 | 1029.8 |
| 20260906121303 | 12 | 225 | 12.9 | 14.5 | 0.00 | 0.10 | 0.00 | 63 | 1029.8 |
| 20260906120803 | 12 | 225 | 9.7 | 14.5 | 0.00 | 0.10 | 0.00 | 63 | 1029.8 |
| 20260906120303 | 12 | 225 | 14.5 | 14.5 | 0.00 | 0.10 | 0.00 | 64 | 1029.8 |
| 20260906115803 | 12 | 225 | 9.7 | 12.9 | 0.00 | 0.10 | 0.00 | 64 | 1030.1 |
| 20260906114803 | 13 | 225 | 9.7 | 12.9 | 0.00 | 0.10 | 0.00 | 62 | 1030.1 |
| 20260906114303 | 12 | 225 | 9.7 | 12.9 | 0.00 | 0.10 | 0.00 | 62 | 1029.8 |
| 20260906113303 | 12 | 225 | 8.0 | 11.3 | 0.00 | 0.10 | 0.00 | 63 | 1029.8 |
| 20260906112803 | 13 | 225 | 9.7 | 12.9 | 0.00 | 0.10 | 0.00 | 61 | 1029.8 |
| 20260906111803 | 13 | 270 | 9.7 | 11.3 | 0.00 | 0.10 | 0.00 | 60 | 1029.8 |
| 20260906110803 | 15 | 270 | 4.8 | 9.7 | 0.00 | 0.10 | 0.00 | 56 | 1029.8 |
| 20260906110303 | 14 | 225 | 11.3 | 11.3 | 0.00 | 0.10 | 0.00 | 57 | 1029.8 |
| 20260906105804 | 14 | 225 | 3.2 | 4.8 | 0.00 | 0.10 | 0.00 | 59 | 1029.8 |
| 20260906105306 | 14 | 225 | 8.0 | 9.7 | 0.00 | 0.10 | 0.00 | 60 | 1029.8 |
| 20260906104803 | 14 | 227 | 8.0 | 9.7 | 0.00 | 0.10 | 0.00 | 59 | 1029.4 |
| 20260906102804 | 15 | 270 | 11.3 | 12.9 | 0.00 | 0.10 | 0.00 | 58 | 1029.4 |
| 20260906102306 | 15 | 270 | 9.7 | 11.3 | 0.00 | 0.10 | 0.00 | 58 | 1029.4 |
| 20260906101803 | 14 | 270 | 9.7 | 12.9 | 0.00 | 0.10 | 0.00 | 59 | 1029.4 |
| 20260906101304 | 14 | 247 | 11.3 | 16.1 | 0.00 | 0.10 | 0.00 | 61 | 1029.4 |
| 20260906100803 | 13 | 247 | 12.9 | 14.5 | 0.00 | 0.10 | 0.00 | 61 | 1029.4 |
| 20260906100303 | 14 | 227 | 11.3 | 16.1 | 0.00 | 0.10 | 0.00 | 61 | 1029.8 |
| 20260906095803 | 13 | 247 | 11.3 | 14.5 | 0.00 | 0.10 | 0.00 | 61 | 1029.4 |
| 20260906095306 | 13 | 270 | 14.5 | 19.3 | 0.00 | 0.10 | 0.00 | 61 | 1029.8 |
| 20260906094804 | 13 | 270 | 14.5 | 14.5 | 0.00 | 0.10 | 0.00 | 61 | 1029.4 |
| 20260906094304 | 14 | 247 | 12.9 | 16.1 | 0.00 | 0.10 | 0.00 | 60 | 1029.8 |
| 20260906093803 | 14 | 225 | 11.3 | 14.5 | 0.00 | 0.10 | 0.00 | 60 | 1029.8 |
| 20260906092804 | 15 | 270 | 11.3 | 16.1 | 0.00 | 0.10 | 0.00 | 59 | 1029.8 |
| 20260906092306 | 14 | 256 | 12.9 | 16.1 | 0.00 | 0.10 | 0.00 | 61 | 1029.8 |
| 20260906091803 | 13 | 225 | 11.3 | 14.5 | 0.00 | 0.10 | 0.00 | 62 | 1029.8 |
| 20260906091304 | 13 | 247 | 12.9 | 14.5 | 0.00 | 0.10 | 0.00 | 61 | 1029.4 |
| 20260906090303 | 14 | 233 | 11.3 | 14.5 | 0.00 | 0.10 | 0.00 | 61 | 1029.8 |
| 20260906085804 | 15 | 267 | 11.3 | 12.9 | 0.00 | 0.10 | 0.00 | 59 | 1029.8 |
| 20260906084803 | 15 | 247 | 9.7 | 14.5 | 0.00 | 0.10 | 0.00 | 58 | 1029.8 |
| 20260906084304 | 15 | 270 | 9.7 | 12.9 | 0.00 | 0.10 | 0.00 | 59 | 1029.8 |
| 20260906083804 | 15 | 270 | 14.5 | 19.3 | 0.00 | 0.10 | 0.00 | 59 | 1029.8 |
| 20260906083303 | 15 | 270 | 11.3 | 14.5 | 0.00 | 0.10 | 0.00 | 58 | 1029.8 |
| 20260906082804 | 15 | 270 | 11.3 | 12.9 | 0.00 | 0.10 | 0.00 | 56 | 1029.4 |
| 20260906082305 | 16 | 270 | 9.7 | 12.9 | 0.00 | 0.10 | 0.00 | 55 | 1029.8 |
| 20260906081803 | 16 | 282 | 8.0 | 11.3 | 0.00 | 0.10 | 0.00 | 54 | 1029.8 |
| 20260906081303 | 16 | 270 | 9.7 | 12.9 | 0.00 | 0.10 | 0.00 | 54 | 1029.8 |
| 20260906080803 | 16 | 315 | 9.7 | 11.3 | 0.00 | 0.10 | 0.00 | 55 | 1029.4 |
| 20260906080303 | 16 | 270 | 9.7 | 12.9 | 0.00 | 0.10 | 0.00 | 55 | 1029.4 |
| 20260906075803 | 15 | 270 | 11.3 | 12.9 | 0.00 | 0.10 | 0.00 | 56 | 1029.4 |
| 20260906075306 | 15 | 270 | 11.3 | 14.5 | 0.00 | 0.10 | 0.00 | 58 | 1029.4 |
| 20260906074303 | 15 | 247 | 12.9 | 14.5 | 0.00 | 0.10 | 0.00 | 60 | 1029.4 |
| 20260906073803 | 15 | 247 | 11.3 | 14.5 | 0.00 | 0.10 | 0.00 | 59 | 1029.4 |
| 20260906073304 | 15 | 270 | 11.3 | 14.5 | 0.00 | 0.10 | 0.00 | 57 | 1029.4 |
| 20260906072804 | 16 | 247 | 11.3 | 12.9 | 0.00 | 0.10 | 0.00 | 55 | 1029.4 |
| 20260906071803 | 16 | 270 | 11.3 | 16.1 | 0.00 | 0.10 | 0.00 | 56 | 1029.4 |
| 20260906071303 | 16 | 247 | 11.3 | 14.5 | 0.00 | 0.10 | 0.00 | 56 | 1029.4 |
| 20260906070803 | 16 | 247 | 9.7 | 12.9 | 0.00 | 0.10 | 0.00 | 57 | 1029.4 |
| 20260906070303 | 16 | 247 | 11.3 | 16.1 | 0.00 | 0.10 | 0.00 | 57 | 1029.1 |
| 20260906065803 | 16 | 248 | 11.3 | 12.9 | 0.00 | 0.10 | 0.00 | 57 | 1029.4 |
| 20260906065305 | 16 | 247 | 8.0 | 11.3 | 0.00 | 0.10 | 0.00 | 58 | 1029.4 |
| 20260906063803 | 15 | 225 | 8.0 | 12.9 | 0.00 | 0.10 | 0.00 | 60 | 1029.1 |
| 20260906063303 | 15 | 247 | 11.3 | 12.9 | 0.00 | 0.10 | 0.00 | 61 | 1029.4 |
| 20260906062804 | 15 | 247 | 12.9 | 16.1 | 0.00 | 0.10 | 0.00 | 62 | 1029.4 |
| 20260906062306 | 15 | 247 | 14.5 | 16.1 | 0.00 | 0.10 | 0.00 | 63 | 1029.4 |
| 20260906061803 | 15 | 247 | 12.9 | 14.5 | 0.00 | 0.10 | 0.00 | 63 | 1029.4 |
| 20260906061304 | 14 | 247 | 12.9 | 14.5 | 0.00 | 0.10 | 0.00 | 64 | 1029.4 |
| 20260906060901 | 15 | 225 | 11.3 | 14.5 | 0.00 | 0.10 | 0.00 | 63 | 1029.4 |
| 20260906055306 | 15 | 225 | 11.3 | 14.5 | 0.00 | 0.10 | 0.10 | 62 | 1029.4 |
| 20260906054804 | 15 | 225 | 9.7 | 12.9 | 0.00 | 0.10 | 0.10 | 61 | 1029.4 |
| 20260906054303 | 15 | 225 | 11.3 | 14.5 | 0.00 | 0.10 | 0.10 | 62 | 1029.4 |
| 20260906053803 | 15 | 225 | 11.3 | 16.1 | 0.00 | 0.10 | 0.10 | 63 | 1029.4 |
| 20260906053303 | 15 | 225 | 11.3 | 14.5 | 0.00 | 0.10 | 0.10 | 63 | 1029.4 |
| 20260906052804 | 15 | 225 | 11.3 | 16.1 | 0.00 | 0.10 | 0.10 | 62 | 1029.7 |
| 20260906052305 | 15 | 234 | 12.9 | 16.1 | 0.00 | 0.10 | 0.10 | 62 | 1029.4 |
| 20260906051804 | 15 | 233 | 14.5 | 19.3 | 0.00 | 0.10 | 0.10 | 64 | 1029.5 |
| 20260906051303 | 15 | 231 | 14.5 | 16.1 | 0.00 | 0.10 | 0.10 | 65 | 1029.8 |
| 20260906050304 | 15 | 225 | 14.5 | 16.1 | 0.00 | 0.10 | 0.10 | 65 | 1029.7 |
| 20260906045803 | 15 | 225 | 14.5 | 16.1 | 0.00 | 0.10 | 0.10 | 66 | 1029.4 |
| 20260906045306 | 15 | 247 | 14.5 | 16.1 | 0.00 | 0.10 | 0.10 | 65 | 1029.8 |
| 20260906044804 | 15 | 225 | 14.5 | 16.1 | 0.00 | 0.10 | 0.10 | 65 | 1029.7 |
| 20260906043804 | 16 | 225 | 11.3 | 14.5 | 0.00 | 0.10 | 0.10 | 63 | 1029.8 |
| 20260906043304 | 16 | 225 | 11.3 | 16.1 | 0.00 | 0.10 | 0.10 | 63 | 1029.8 |
| 20260906042804 | 16 | 244 | 11.3 | 14.5 | 0.00 | 0.10 | 0.10 | 60 | 1029.8 |
| 20260906042306 | 17 | 225 | 11.3 | 19.3 | 0.00 | 0.10 | 0.10 | 58 | 1029.8 |
| 20260906041804 | 16 | 225 | 11.3 | 16.1 | 0.00 | 0.10 | 0.10 | 59 | 1030.1 |
| 20260906041304 | 16 | 228 | 9.7 | 14.5 | 0.00 | 0.10 | 0.10 | 61 | 1030.1 |
| 20260906040804 | 16 | 225 | 9.7 | 12.9 | 0.03 | 0.10 | 0.10 | 63 | 1029.8 |
| 20260906040304 | 16 | 252 | 9.7 | 11.3 | 0.08 | 0.10 | 0.10 | 65 | 1030.1 |
| 20260906035306 | 16 | 180 | 4.8 | 12.9 | 0.10 | 0.10 | 0.10 | 65 | 1030.1 |
| 20260906034803 | 16 | 269 | 14.5 | 16.1 | 0.10 | 0.10 | 0.10 | 64 | 1030.1 |
| 20260906034304 | 16 | 258 | 17.7 | 29.0 | 0.10 | 0.10 | 0.10 | 64 | 1030.1 |
| 20260906033804 | 16 | 248 | 14.5 | 24.1 | 0.10 | 0.10 | 0.10 | 64 | 1030.1 |
| 20260906033303 | 16 | 225 | 20.9 | 29.0 | 0.10 | 0.10 | 0.10 | 64 | 1030.1 |
| 20260906032803 | 17 | 251 | 14.5 | 22.5 | 0.10 | 0.10 | 0.10 | 60 | 1030.1 |
| 20260906032306 | 17 | 226 | 14.5 | 22.5 | 0.10 | 0.10 | 0.10 | 53 | 1029.8 |
| 20260906031803 | 17 | 90 | 14.5 | 25.7 | 0.10 | 0.10 | 0.10 | 50 | 1029.8 |
| 20260906031303 | 17 | 90 | 14.5 | 22.5 | 0.10 | 0.10 | 0.10 | 52 | 1030.1 |
| 20260906030804 | 18 | 152 | 20.9 | 33.8 | 0.08 | 0.08 | 0.08 | 53 | 1030.1 |
| 20260906030304 | 19 | 232 | 32.2 | 41.8 | 0.03 | 0.03 | 0.03 | 48 | 1029.8 |
| 20260906025803 | 20 | 245 | 11.3 | 27.4 | 0.00 | 0.00 | 0.00 | 44 | 1029.7 |
| 20260906025306 | 19 | 270 | 6.4 | 16.1 | 0.00 | 0.00 | 0.00 | 45 | 1029.4 |
| 20260906024804 | 19 | 225 | 3.2 | 8.0 | 0.00 | 0.00 | 0.00 | 45 | 1029.1 |
| 20260906024303 | 19 | 247 | 4.8 | 9.7 | 0.00 | 0.00 | 0.00 | 45 | 1029.1 |
| 20260906023804 | 19 | 247 | 4.8 | 8.0 | 0.00 | 0.00 | 0.00 | 46 | 1029.1 |
| 20260906023304 | 18 | 263 | 4.8 | 12.9 | 0.00 | 0.00 | 0.00 | 47 | 1029.1 |
| 20260906022803 | 18 | 200 | 9.7 | 12.9 | 0.00 | 0.00 | 0.00 | 47 | 1029.1 |
| 20260906022306 | 19 | 180 | 8.0 | 9.7 | 0.00 | 0.00 | 0.00 | 46 | 1028.8 |
| 20260906021804 | 19 | 180 | 8.0 | 9.7 | 0.00 | 0.00 | 0.00 | 45 | 1028.7 |
| 20260906021304 | 19 | 149 | 4.8 | 8.0 | 0.00 | 0.00 | 0.00 | 45 | 1029.1 |
| 20260906020304 | 20 | 225 | 8.0 | 9.7 | 0.00 | 0.00 | 0.00 | 44 | 1029.1 |
| 20260906015803 | 20 | 225 | 4.8 | 9.7 | 0.00 | 0.00 | 0.00 | 43 | 1028.7 |
| 20260906015306 | 20 | 224 | 6.4 | 9.7 | 0.00 | 0.00 | 0.00 | 42 | 1028.7 |
| 20260906014303 | 21 | 225 | 8.0 | 11.3 | 0.00 | 0.00 | 0.00 | 42 | 1028.7 |
| 20260906013803 | 21 | 180 | 9.7 | 14.5 | 0.00 | 0.00 | 0.00 | 42 | 1028.7 |
| 20260906013303 | 21 | 180 | 8.0 | 11.3 | 0.00 | 0.00 | 0.00 | 41 | 1028.7 |
| 20260906012804 | 21 | 135 | 9.7 | 14.5 | 0.00 | 0.00 | 0.00 | 41 | 1028.7 |
| 20260906012306 | 21 | 135 | 11.3 | 14.5 | 0.00 | 0.00 | 0.00 | 41 | 1028.7 |
| 20260906011803 | 21 | 135 | 11.3 | 19.3 | 0.00 | 0.00 | 0.00 | 40 | 1028.7 |
| 20260906011303 | 22 | 126 | 9.7 | 19.3 | 0.00 | 0.00 | 0.00 | 40 | 1028.5 |
| 20260906010804 | 22 | 119 | 14.5 | 19.3 | 0.00 | 0.00 | 0.00 | 39 | 1028.4 |
| 20260906010303 | 22 | 120 | 14.5 | 19.3 | 0.00 | 0.00 | 0.00 | 38 | 1028.5 |
| 20260906005804 | 22 | 135 | 11.3 | 19.3 | 0.00 | 0.00 | 0.00 | 38 | 1028.7 |
| 20260906005306 | 23 | 130 | 12.9 | 19.3 | 0.00 | 0.00 | 0.00 | 37 | 1028.4 |
| 20260906004804 | 23 | 135 | 9.7 | 14.5 | 0.00 | 0.00 | 0.00 | 37 | 1028.5 |
| 20260906004303 | 23 | 136 | 14.5 | 22.5 | 0.00 | 0.00 | 0.00 | 36 | 1028.4 |
| 20260906003803 | 24 | 134 | 6.4 | 14.5 | 0.00 | 0.00 | 0.00 | 36 | 1028.4 |
| 20260906003303 | 24 | 135 | 11.3 | 16.1 | 0.00 | 0.00 | 0.00 | 36 | 1028.4 |
| 20260906002804 | 24 | 135 | 11.3 | 16.1 | 0.00 | 0.00 | 0.00 | 35 | 1028.4 |
| 20260906002306 | 24 | 135 | 14.5 | 19.3 | 0.00 | 0.00 | 0.00 | 35 | 1028.4 |
| 20260906001804 | 24 | 135 | 9.7 | 16.1 | 0.00 | 0.00 | 0.00 | 35 | 1028.4 |
| 20260906001304 | 24 | 130 | 14.5 | 20.9 | 0.00 | 0.00 | 0.00 | 35 | 1028.4 |
| 20260906000803 | 24 | 112 | 12.9 | 24.1 | 0.00 | 0.00 | 0.00 | 35 | 1028.1 |
| 20260906000304 | 25 | 62 | 16.1 | 25.7 | 0.00 | 0.00 | 0.00 | 34 | 1028.1 |
| 20260905235803 | 25 | 45 | 11.3 | 20.9 | 0.00 | 0.00 | 0.00 | 35 | 1028.1 |
| 20260905235306 | 24 | 58 | 14.5 | 19.3 | 0.00 | 0.00 | 0.00 | 36 | 1028.1 |
| 20260905234804 | 24 | 42 | 12.9 | 19.3 | 0.00 | 0.00 | 0.00 | 35 | 1028.1 |
| 20260905234303 | 24 | 48 | 11.3 | 20.9 | 0.00 | 0.00 | 0.00 | 35 | 1028.1 |
| 20260905233804 | 25 | 81 | 16.1 | 24.1 | 0.00 | 0.00 | 0.00 | 34 | 1028.1 |
| 20260905233303 | 25 | 90 | 20.9 | 27.4 | 0.00 | 0.00 | 0.00 | 34 | 1028.1 |
| 20260905232803 | 25 | 82 | 16.1 | 24.1 | 0.00 | 0.00 | 0.00 | 33 | 1028.1 |
| 20260905232306 | 25 | 90 | 16.1 | 25.7 | 0.00 | 0.00 | 0.00 | 33 | 1027.8 |
| 20260905231803 | 25 | 92 | 8.0 | 19.3 | 0.00 | 0.00 | 0.00 | 33 | 1028.0 |
| 20260905231303 | 24 | 97 | 8.0 | 22.5 | 0.00 | 0.00 | 0.00 | 34 | 1028.1 |
| 20260905230804 | 24 | 99 | 19.3 | 27.4 | 0.00 | 0.00 | 0.00 | 35 | 1027.8 |
| 20260905230304 | 25 | 90 | 19.3 | 27.4 | 0.00 | 0.00 | 0.00 | 34 | 1028.1 |
| 20260905225803 | 25 | 91 | 20.9 | 33.8 | 0.00 | 0.00 | 0.00 | 32 | 1027.7 |
| 20260905225305 | 26 | 90 | 22.5 | 33.8 | 0.00 | 0.00 | 0.00 | 31 | 1027.7 |
| 20260905224803 | 26 | 140 | 12.9 | 35.4 | 0.00 | 0.00 | 0.00 | 30 | 1028.0 |
| 20260905223803 | 25 | 82 | 16.1 | 25.7 | 0.00 | 0.00 | 0.00 | 33 | 1028.1 |
| 20260905223304 | 26 | 75 | 22.5 | 32.2 | 0.00 | 0.00 | 0.00 | 32 | 1028.1 |
| 20260905222803 | 27 | 90 | 20.9 | 29.0 | 0.00 | 0.00 | 0.00 | 29 | 1028.0 |
| 20260905222306 | 27 | 112 | 14.5 | 59.5 | 0.00 | 0.00 | 0.00 | 27 | 1027.8 |
| 20260905221304 | 27 | 66 | 9.7 | 20.9 | 0.00 | 0.00 | 0.00 | 21 | 1028.1 |
| 20260905220804 | 27 | 271 | 4.8 | 14.5 | 0.00 | 0.00 | 0.00 | 21 | 1028.4 |
| 20260905220304 | 27 | 225 | 11.3 | 16.1 | 0.00 | 0.00 | 0.00 | 21 | 1028.4 |
| 20260905215804 | 27 | 225 | 16.1 | 24.1 | 0.00 | 0.00 | 0.00 | 22 | 1028.1 |
| 20260905215306 | 27 | 271 | 16.1 | 25.7 | 0.00 | 0.00 | 0.00 | 22 | 1028.1 |